contact:dominique.lefevre@mio.osupytheas.fr, maurice.libes@osupytheas.fr, didier.mallarino@osupytheas.fr
Project:EMSO http://www.emso-fr.org/EMSO-France
Depth: 2436.0 m
Title:EMSO Ligure Ouest : Data MII capteur MICROCAT
DateTime_Computer,Latitude,Longitude,Temperature,Conductivity,Pressure,DateTime_Instrument
DateTime_Computer,Latitude,Longitude,degC,S m-1,dbar,DateTime_Instrument
2022-12-10T00:00:32Z,42.805,6.029,13.3039,4.60084,2470.586,2022-12-10T02:06:28Z
2022-12-10T00:03:35Z,42.805,6.029,13.3021,4.60084,2470.577,2022-12-10T02:09:31Z
2022-12-10T00:06:38Z,42.805,6.029,13.3021,4.60087,2470.637,2022-12-10T02:12:34Z
2022-12-10T00:09:41Z,42.805,6.029,13.3021,4.60113,2470.577,2022-12-10T02:15:37Z
2022-12-10T00:12:44Z,42.805,6.029,13.3014,4.60097,2470.6,2022-12-10T02:18:40Z
2022-12-10T00:15:47Z,42.805,6.029,13.3033,4.60102,2470.614,2022-12-10T02:21:43Z
2022-12-10T00:18:50Z,42.805,6.029,13.3023,4.60096,2470.553,2022-12-10T02:24:47Z
2022-12-10T00:21:53Z,42.805,6.029,13.3020,4.60085,2470.577,2022-12-10T02:27:50Z
2022-12-10T00:24:57Z,42.805,6.029,13.3016,4.60077,2470.577,2022-12-10T02:30:53Z
2022-12-10T00:28:00Z,42.805,6.029,13.3019,4.60084,2470.567,2022-12-10T02:33:56Z
2022-12-10T00:31:03Z,42.805,6.029,13.3026,4.60079,2470.591,2022-12-10T02:36:59Z
2022-12-10T00:34:06Z,42.805,6.029,13.3032,4.60089,2470.591,2022-12-10T02:40:02Z
2022-12-10T00:37:09Z,42.805,6.029,13.3022,4.60104,2470.577,2022-12-10T02:43:05Z
2022-12-10T00:40:12Z,42.805,6.029,13.3028,4.60099,2470.567,2022-12-10T02:46:08Z
2022-12-10T00:43:15Z,42.805,6.029,13.3021,4.60119,2470.577,2022-12-10T02:49:11Z
2022-12-10T00:46:18Z,42.805,6.029,13.3023,4.60121,2470.53,2022-12-10T02:52:14Z
2022-12-10T00:49:21Z,42.805,6.029,13.3014,4.60099,2470.553,2022-12-10T02:55:17Z
2022-12-10T00:52:24Z,42.805,6.029,13.3018,4.60096,2470.567,2022-12-10T02:58:21Z
2022-12-10T00:55:27Z,42.805,6.029,13.3030,4.60117,2470.553,2022-12-10T03:01:24Z
2022-12-10T00:58:31Z,42.805,6.029,13.3031,4.60114,2470.553,2022-12-10T03:04:27Z
2022-12-10T01:01:34Z,42.805,6.029,13.3031,4.60085,2470.539,2022-12-10T03:07:30Z
2022-12-10T01:04:37Z,42.805,6.029,13.3026,4.60110,2470.577,2022-12-10T03:10:33Z
2022-12-10T01:07:40Z,42.805,6.029,13.3029,4.60081,2470.553,2022-12-10T03:13:36Z
2022-12-10T01:10:43Z,42.805,6.029,13.3024,4.60089,2470.544,2022-12-10T03:16:39Z
2022-12-10T01:13:46Z,42.805,6.029,13.3026,4.60099,2470.53,2022-12-10T03:19:42Z
2022-12-10T01:16:49Z,42.805,6.029,13.3039,4.60119,2470.577,2022-12-10T03:22:45Z
2022-12-10T01:19:52Z,42.805,6.029,13.3036,4.60125,2470.577,2022-12-10T03:25:48Z
2022-12-10T01:22:55Z,42.805,6.029,13.3038,4.60120,2470.53,2022-12-10T03:28:51Z
2022-12-10T01:25:58Z,42.805,6.029,13.3036,4.60100,2470.553,2022-12-10T03:31:54Z
2022-12-10T01:29:01Z,42.805,6.029,13.3038,4.60125,2470.544,2022-12-10T03:34:58Z
2022-12-10T01:32:04Z,42.805,6.029,13.3046,4.60110,2470.567,2022-12-10T03:38:01Z
2022-12-10T01:35:08Z,42.805,6.029,13.3048,4.60125,2470.553,2022-12-10T03:41:04Z
2022-12-10T01:38:11Z,42.805,6.029,13.3035,4.60117,2470.544,2022-12-10T03:44:07Z
2022-12-10T01:41:14Z,42.805,6.029,13.3031,4.60119,2470.53,2022-12-10T03:47:10Z
2022-12-10T01:44:17Z,42.805,6.029,13.3042,4.60117,2470.544,2022-12-10T03:50:13Z
2022-12-10T01:47:20Z,42.805,6.029,13.3035,4.60149,2470.53,2022-12-10T03:53:16Z
2022-12-10T01:50:23Z,42.805,6.029,13.3034,4.60125,2470.53,2022-12-10T03:56:19Z
2022-12-10T01:53:26Z,42.805,6.029,13.3015,4.60084,2470.577,2022-12-10T03:59:22Z
2022-12-10T01:56:29Z,42.805,6.029,13.3025,4.60086,2470.507,2022-12-10T04:02:25Z
2022-12-10T01:59:32Z,42.805,6.029,13.3020,4.60087,2470.553,2022-12-10T04:05:28Z
2022-12-10T02:02:35Z,42.805,6.029,13.3029,4.60110,2470.553,2022-12-10T04:08:32Z
2022-12-10T02:05:38Z,42.805,6.029,13.3022,4.60087,2470.577,2022-12-10T04:11:35Z
2022-12-10T02:08:41Z,42.805,6.029,13.3027,4.60089,2470.53,2022-12-10T04:14:38Z
2022-12-10T02:11:45Z,42.805,6.029,13.3024,4.60089,2470.567,2022-12-10T04:17:41Z
2022-12-10T02:14:48Z,42.805,6.029,13.3027,4.60122,2470.544,2022-12-10T04:20:44Z
2022-12-10T02:17:51Z,42.805,6.029,13.3043,4.60148,2470.567,2022-12-10T04:23:47Z
2022-12-10T02:20:54Z,42.805,6.029,13.3043,4.60127,2470.53,2022-12-10T04:26:50Z
2022-12-10T02:23:57Z,42.805,6.029,13.3019,4.60112,2470.577,2022-12-10T04:29:53Z
2022-12-10T02:27:00Z,42.805,6.029,13.3021,4.60116,2470.53,2022-12-10T04:32:56Z
2022-12-10T02:30:03Z,42.805,6.029,13.3034,4.60114,2470.553,2022-12-10T04:35:59Z
2022-12-10T02:33:06Z,42.805,6.029,13.3042,4.60105,2470.577,2022-12-10T04:39:02Z
2022-12-10T02:36:09Z,42.805,6.029,13.3029,4.60089,2470.567,2022-12-10T04:42:06Z
2022-12-10T02:39:12Z,42.805,6.029,13.3024,4.60098,2470.539,2022-12-10T04:45:09Z
2022-12-10T02:42:15Z,42.805,6.029,13.3031,4.60112,2470.544,2022-12-10T04:48:12Z
2022-12-10T02:45:19Z,42.805,6.029,13.3034,4.60114,2470.544,2022-12-10T04:51:15Z
2022-12-10T02:48:22Z,42.805,6.029,13.3027,4.60090,2470.544,2022-12-10T04:54:18Z
2022-12-10T02:51:25Z,42.805,6.029,13.3029,4.60127,2470.53,2022-12-10T04:57:21Z
2022-12-10T02:54:28Z,42.805,6.029,13.3033,4.60099,2470.53,2022-12-10T05:00:24Z
2022-12-10T02:57:31Z,42.805,6.029,13.3025,4.60097,2470.553,2022-12-10T05:03:27Z
2022-12-10T03:00:34Z,42.805,6.029,13.3030,4.60097,2470.591,2022-12-10T05:06:30Z
2022-12-10T03:03:37Z,42.805,6.029,13.3029,4.60130,2470.53,2022-12-10T05:09:33Z
2022-12-10T03:06:40Z,42.805,6.029,13.3029,4.60124,2470.567,2022-12-10T05:12:36Z
2022-12-10T03:09:43Z,42.805,6.029,13.3031,4.60113,2470.53,2022-12-10T05:15:39Z
2022-12-10T03:12:46Z,42.805,6.029,13.3025,4.60110,2470.544,2022-12-10T05:18:43Z
2022-12-10T03:15:49Z,42.805,6.029,13.3053,4.60111,2470.553,2022-12-10T05:21:46Z
2022-12-10T03:18:52Z,42.805,6.029,13.3058,4.60102,2470.567,2022-12-10T05:24:49Z
2022-12-10T03:21:56Z,42.805,6.029,13.3032,4.60114,2470.567,2022-12-10T05:27:52Z
2022-12-10T03:24:59Z,42.805,6.029,13.3039,4.60137,2470.553,2022-12-10T05:30:55Z
2022-12-10T03:28:02Z,42.805,6.029,13.3028,4.60145,2470.567,2022-12-10T05:33:58Z
2022-12-10T03:31:05Z,42.805,6.029,13.3036,4.60123,2470.577,2022-12-10T05:37:01Z
2022-12-10T03:34:08Z,42.805,6.029,13.3042,4.60137,2470.586,2022-12-10T05:40:04Z
2022-12-10T03:37:11Z,42.805,6.029,13.3023,4.60099,2470.52,2022-12-10T05:43:07Z
2022-12-10T03:40:14Z,42.805,6.029,13.3023,4.60113,2470.567,2022-12-10T05:46:10Z
2022-12-10T03:43:17Z,42.805,6.029,13.3025,4.60137,2470.591,2022-12-10T05:49:13Z
2022-12-10T03:46:20Z,42.805,6.029,13.3042,4.60114,2470.577,2022-12-10T05:52:17Z
2022-12-10T03:49:23Z,42.805,6.029,13.3046,4.60115,2470.567,2022-12-10T05:55:20Z
2022-12-10T03:52:26Z,42.805,6.029,13.3044,4.60131,2470.553,2022-12-10T05:58:23Z
2022-12-10T03:55:29Z,42.805,6.029,13.3049,4.60151,2470.577,2022-12-10T06:01:26Z
2022-12-10T03:58:33Z,42.805,6.029,13.3062,4.60114,2470.53,2022-12-10T06:04:29Z
2022-12-10T04:01:36Z,42.805,6.029,13.3043,4.60140,2470.544,2022-12-10T06:07:32Z
2022-12-10T04:04:39Z,42.805,6.029,13.3030,4.60147,2470.591,2022-12-10T06:10:35Z
2022-12-10T04:07:42Z,42.805,6.029,13.3020,4.60137,2470.591,2022-12-10T06:13:38Z
2022-12-10T04:10:45Z,42.805,6.029,13.3053,4.60155,2470.614,2022-12-10T06:16:41Z
2022-12-10T04:13:48Z,42.805,6.029,13.3036,4.60155,2470.553,2022-12-10T06:19:44Z
2022-12-10T04:16:51Z,42.805,6.029,13.3043,4.60139,2470.567,2022-12-10T06:22:47Z
2022-12-10T04:19:54Z,42.805,6.029,13.3057,4.60133,2470.577,2022-12-10T06:25:50Z
2022-12-10T04:22:57Z,42.805,6.029,13.3036,4.60149,2470.614,2022-12-10T06:28:54Z
2022-12-10T04:26:00Z,42.805,6.029,13.3041,4.60084,2470.6,2022-12-10T06:31:57Z
2022-12-10T04:29:03Z,42.805,6.029,13.3029,4.60166,2470.6,2022-12-10T06:35:00Z
2022-12-10T04:32:07Z,42.805,6.029,13.3033,4.60150,2470.637,2022-12-10T06:38:03Z
2022-12-10T04:35:10Z,42.805,6.029,13.3031,4.60108,2470.637,2022-12-10T06:41:06Z
2022-12-10T04:38:13Z,42.805,6.029,13.3026,4.60106,2470.6,2022-12-10T06:44:09Z
2022-12-10T04:41:16Z,42.805,6.029,13.3029,4.60110,2470.637,2022-12-10T06:47:12Z
2022-12-10T04:44:19Z,42.805,6.029,13.3029,4.60111,2470.6,2022-12-10T06:50:15Z
2022-12-10T04:47:22Z,42.805,6.029,13.3026,4.60096,2470.6,2022-12-10T06:53:18Z
2022-12-10T04:50:25Z,42.805,6.029,13.3030,4.60122,2470.624,2022-12-10T06:56:21Z
2022-12-10T04:53:28Z,42.805,6.029,13.3031,4.60118,2470.633,2022-12-10T06:59:24Z
2022-12-10T04:56:31Z,42.805,6.029,13.3031,4.60114,2470.661,2022-12-10T07:02:28Z
2022-12-10T04:59:34Z,42.805,6.029,13.3024,4.60099,2470.6,2022-12-10T07:05:31Z
2022-12-10T05:02:37Z,42.805,6.029,13.3023,4.60094,2470.61,2022-12-10T07:08:34Z
2022-12-10T05:05:40Z,42.805,6.029,13.3026,4.60142,2470.646,2022-12-10T07:11:37Z
2022-12-10T05:08:44Z,42.805,6.029,13.3036,4.60111,2470.637,2022-12-10T07:14:40Z
2022-12-10T05:11:47Z,42.805,6.029,13.3026,4.60101,2470.624,2022-12-10T07:17:43Z
2022-12-10T05:14:50Z,42.805,6.029,13.3024,4.60126,2470.624,2022-12-10T07:20:46Z
2022-12-10T05:17:53Z,42.805,6.029,13.3038,4.60149,2470.624,2022-12-10T07:23:49Z
2022-12-10T05:20:56Z,42.805,6.029,13.3047,4.60154,2470.646,2022-12-10T07:26:52Z
2022-12-10T05:23:59Z,42.805,6.029,13.3027,4.60132,2470.646,2022-12-10T07:29:55Z
2022-12-10T05:27:02Z,42.805,6.029,13.3043,4.60118,2470.646,2022-12-10T07:32:58Z
2022-12-10T05:30:05Z,42.805,6.029,13.3038,4.60125,2470.67,2022-12-10T07:36:02Z
2022-12-10T05:33:08Z,42.805,6.029,13.3049,4.60145,2470.646,2022-12-10T07:39:05Z
2022-12-10T05:36:11Z,42.805,6.029,13.3034,4.60131,2470.661,2022-12-10T07:42:08Z
2022-12-10T05:39:14Z,42.805,6.029,13.3050,4.60140,2470.646,2022-12-10T07:45:11Z
2022-12-10T05:42:17Z,42.805,6.029,13.3043,4.60129,2470.646,2022-12-10T07:48:14Z
2022-12-10T05:45:21Z,42.805,6.029,13.3027,4.60134,2470.698,2022-12-10T07:51:17Z
2022-12-10T05:48:24Z,42.805,6.029,13.3039,4.60129,2470.707,2022-12-10T07:54:20Z
2022-12-10T05:51:27Z,42.805,6.029,13.3054,4.60127,2470.67,2022-12-10T07:57:23Z
2022-12-10T05:54:30Z,42.805,6.029,13.3026,4.60130,2470.684,2022-12-10T08:00:26Z
2022-12-10T05:57:33Z,42.805,6.029,13.3030,4.60129,2470.684,2022-12-10T08:03:29Z
2022-12-10T06:00:36Z,42.805,6.029,13.3024,4.60117,2470.693,2022-12-10T08:06:32Z
2022-12-10T06:03:39Z,42.805,6.029,13.3035,4.60144,2470.73,2022-12-10T08:09:36Z
2022-12-10T06:06:42Z,42.805,6.029,13.3027,4.60130,2470.693,2022-12-10T08:12:39Z
2022-12-10T06:09:45Z,42.805,6.029,13.3036,4.60125,2470.707,2022-12-10T08:15:42Z
2022-12-10T06:12:48Z,42.805,6.029,13.3023,4.60118,2470.707,2022-12-10T08:18:45Z
2022-12-10T06:15:51Z,42.805,6.029,13.3034,4.60132,2470.73,2022-12-10T08:21:48Z
2022-12-10T06:18:55Z,42.805,6.029,13.3032,4.60128,2470.693,2022-12-10T08:24:51Z
2022-12-10T06:21:58Z,42.805,6.029,13.3038,4.60138,2470.717,2022-12-10T08:27:54Z
2022-12-10T06:25:01Z,42.805,6.029,13.3024,4.60132,2470.73,2022-12-10T08:30:57Z
2022-12-10T06:28:04Z,42.805,6.029,13.3027,4.60135,2470.717,2022-12-10T08:34:00Z
2022-12-10T06:31:07Z,42.805,6.029,13.3022,4.60127,2470.717,2022-12-10T08:37:03Z
2022-12-10T06:34:10Z,42.805,6.029,13.3024,4.60140,2470.717,2022-12-10T08:40:06Z
2022-12-10T06:37:13Z,42.805,6.029,13.3033,4.60129,2470.74,2022-12-10T08:43:09Z
2022-12-10T06:40:16Z,42.805,6.029,13.3033,4.60160,2470.717,2022-12-10T08:46:13Z
2022-12-10T06:43:19Z,42.805,6.029,13.3031,4.60130,2470.717,2022-12-10T08:49:16Z
2022-12-10T06:46:22Z,42.805,6.029,13.3043,4.60137,2470.717,2022-12-10T08:52:19Z
2022-12-10T06:49:25Z,42.805,6.029,13.3030,4.60115,2470.74,2022-12-10T08:55:22Z
2022-12-10T06:52:28Z,42.805,6.029,13.3024,4.60143,2470.74,2022-12-10T08:58:25Z
2022-12-10T06:55:32Z,42.805,6.029,13.3042,4.60138,2470.717,2022-12-10T09:01:28Z
2022-12-10T06:58:35Z,42.805,6.029,13.3027,4.60140,2470.73,2022-12-10T09:04:31Z
2022-12-10T07:01:38Z,42.805,6.029,13.3036,4.60132,2470.73,2022-12-10T09:07:34Z
2022-12-10T07:04:41Z,42.805,6.029,13.3024,4.60138,2470.777,2022-12-10T09:10:37Z
2022-12-10T07:07:44Z,42.805,6.029,13.3024,4.60120,2470.777,2022-12-10T09:13:40Z
2022-12-10T07:10:47Z,42.805,6.029,13.3029,4.60125,2470.787,2022-12-10T09:16:43Z
2022-12-10T07:13:50Z,42.805,6.029,13.3024,4.60106,2470.754,2022-12-10T09:19:47Z
2022-12-10T07:16:53Z,42.805,6.029,13.3029,4.60126,2470.74,2022-12-10T09:22:50Z
2022-12-10T07:19:56Z,42.805,6.029,13.3022,4.60104,2470.763,2022-12-10T09:25:53Z
2022-12-10T07:22:59Z,42.805,6.029,13.3019,4.60099,2470.763,2022-12-10T09:28:56Z
2022-12-10T07:26:02Z,42.805,6.029,13.3046,4.60110,2470.777,2022-12-10T09:31:59Z
2022-12-10T07:29:05Z,42.805,6.029,13.3027,4.60117,2470.74,2022-12-10T09:35:02Z
2022-12-10T07:32:09Z,42.805,6.029,13.3032,4.60122,2470.74,2022-12-10T09:38:05Z
2022-12-10T07:35:12Z,42.805,6.029,13.3034,4.60116,2470.777,2022-12-10T09:41:08Z
2022-12-10T07:38:15Z,42.805,6.029,13.3023,4.60112,2470.763,2022-12-10T09:44:11Z
2022-12-10T07:41:18Z,42.805,6.029,13.3033,4.60111,2470.763,2022-12-10T09:47:14Z
2022-12-10T07:44:21Z,42.805,6.029,13.3026,4.60121,2470.763,2022-12-10T09:50:17Z
2022-12-10T07:47:24Z,42.805,6.029,13.3028,4.60122,2470.777,2022-12-10T09:53:20Z
2022-12-10T07:50:27Z,42.805,6.029,13.3041,4.60125,2470.777,2022-12-10T09:56:24Z
2022-12-10T07:53:30Z,42.805,6.029,13.3036,4.60127,2470.787,2022-12-10T09:59:27Z
2022-12-10T07:56:33Z,42.805,6.029,13.3029,4.60107,2470.777,2022-12-10T10:02:30Z
2022-12-10T07:59:36Z,42.805,6.029,13.3031,4.60120,2470.763,2022-12-10T10:05:33Z
2022-12-10T08:02:39Z,42.805,6.029,13.3027,4.60111,2470.763,2022-12-10T10:08:36Z
2022-12-10T08:05:43Z,42.805,6.029,13.3031,4.60116,2470.8,2022-12-10T10:11:39Z
2022-12-10T08:08:46Z,42.805,6.029,13.3029,4.60104,2470.763,2022-12-10T10:14:42Z
2022-12-10T08:11:49Z,42.805,6.029,13.3034,4.60129,2470.8,2022-12-10T10:17:45Z
2022-12-10T08:14:52Z,42.805,6.029,13.3032,4.60136,2470.754,2022-12-10T10:20:48Z
2022-12-10T08:17:55Z,42.805,6.029,13.3033,4.60110,2470.763,2022-12-10T10:23:51Z
2022-12-10T08:20:58Z,42.805,6.029,13.3026,4.60102,2470.777,2022-12-10T10:26:54Z
2022-12-10T08:24:01Z,42.805,6.029,13.3027,4.60110,2470.763,2022-12-10T10:29:58Z
2022-12-10T08:27:04Z,42.805,6.029,13.3027,4.60110,2470.74,2022-12-10T10:33:01Z
2022-12-10T08:30:07Z,42.805,6.029,13.3020,4.60099,2470.717,2022-12-10T10:36:04Z
2022-12-10T08:33:10Z,42.805,6.029,13.3028,4.60102,2470.763,2022-12-10T10:39:07Z
2022-12-10T08:36:13Z,42.805,6.029,13.3031,4.60097,2470.763,2022-12-10T10:42:10Z
2022-12-10T08:39:17Z,42.805,6.029,13.3024,4.60131,2470.777,2022-12-10T10:45:13Z
2022-12-10T08:42:20Z,42.805,6.029,13.3021,4.60094,2470.74,2022-12-10T10:48:16Z
2022-12-10T08:45:23Z,42.805,6.029,13.3024,4.60084,2470.763,2022-12-10T10:51:19Z
2022-12-10T08:48:26Z,42.805,6.029,13.3023,4.60097,2470.777,2022-12-10T10:54:22Z
2022-12-10T08:51:29Z,42.805,6.029,13.3027,4.60107,2470.763,2022-12-10T10:57:25Z
2022-12-10T08:54:32Z,42.805,6.029,13.3021,4.60102,2470.754,2022-12-10T11:00:29Z
2022-12-10T08:57:35Z,42.805,6.029,13.3032,4.60100,2470.787,2022-12-10T11:03:32Z
2022-12-10T09:00:38Z,42.805,6.029,13.3027,4.60090,2470.787,2022-12-10T11:06:35Z
2022-12-10T09:03:41Z,42.805,6.029,13.3022,4.60094,2470.763,2022-12-10T11:09:38Z
2022-12-10T09:06:44Z,42.805,6.029,13.3027,4.60115,2470.763,2022-12-10T11:12:41Z
2022-12-10T09:09:47Z,42.805,6.029,13.3026,4.60119,2470.787,2022-12-10T11:15:44Z
2022-12-10T09:12:51Z,42.805,6.029,13.3022,4.60110,2470.8,2022-12-10T11:18:47Z
2022-12-10T09:15:54Z,42.805,6.029,13.3026,4.60101,2470.763,2022-12-10T11:21:50Z
2022-12-10T09:18:57Z,42.805,6.029,13.3024,4.60105,2470.763,2022-12-10T11:24:53Z
2022-12-10T09:22:00Z,42.805,6.029,13.3024,4.60085,2470.777,2022-12-10T11:27:56Z
2022-12-10T09:25:03Z,42.805,6.029,13.3017,4.60086,2470.763,2022-12-10T11:30:59Z
2022-12-10T09:28:06Z,42.805,6.029,13.3031,4.60099,2470.754,2022-12-10T11:34:03Z
2022-12-10T09:31:09Z,42.805,6.029,13.3020,4.60089,2470.754,2022-12-10T11:37:06Z
2022-12-10T09:34:12Z,42.805,6.029,13.3022,4.60101,2470.787,2022-12-10T11:40:09Z
2022-12-10T09:37:15Z,42.805,6.029,13.3020,4.60101,2470.754,2022-12-10T11:43:12Z
2022-12-10T09:40:18Z,42.805,6.029,13.3024,4.60093,2470.777,2022-12-10T11:46:15Z
2022-12-10T09:43:21Z,42.805,6.029,13.3021,4.60104,2470.74,2022-12-10T11:49:18Z
2022-12-10T09:46:25Z,42.805,6.029,13.3019,4.60088,2470.74,2022-12-10T11:52:21Z
2022-12-10T09:49:28Z,42.805,6.029,13.3022,4.60107,2470.777,2022-12-10T11:55:24Z
2022-12-10T09:52:31Z,42.805,6.029,13.3021,4.60103,2470.73,2022-12-10T11:58:27Z
2022-12-10T09:55:34Z,42.805,6.029,13.3021,4.60089,2470.777,2022-12-10T12:01:30Z
2022-12-10T09:58:37Z,42.805,6.029,13.3023,4.60076,2470.717,2022-12-10T12:04:33Z
2022-12-10T10:01:40Z,42.805,6.029,13.3022,4.60084,2470.74,2022-12-10T12:07:37Z
2022-12-10T10:04:43Z,42.805,6.029,13.3026,4.60092,2470.74,2022-12-10T12:10:40Z
2022-12-10T10:07:46Z,42.805,6.029,13.3027,4.60092,2470.763,2022-12-10T12:13:43Z
2022-12-10T10:10:49Z,42.805,6.029,13.3023,4.60102,2470.754,2022-12-10T12:16:46Z
2022-12-10T10:13:52Z,42.805,6.029,13.3018,4.60084,2470.754,2022-12-10T12:19:49Z
2022-12-10T10:16:55Z,42.805,6.029,13.3028,4.60112,2470.73,2022-12-10T12:22:52Z
2022-12-10T10:19:59Z,42.805,6.029,13.3024,4.60090,2470.754,2022-12-10T12:25:55Z
2022-12-10T10:23:02Z,42.805,6.029,13.3014,4.60092,2470.74,2022-12-10T12:28:58Z
2022-12-10T10:26:05Z,42.805,6.029,13.3016,4.60093,2470.74,2022-12-10T12:32:01Z
2022-12-10T10:29:08Z,42.805,6.029,13.3013,4.60079,2470.74,2022-12-10T12:35:04Z
2022-12-10T10:32:11Z,42.805,6.029,13.3014,4.60079,2470.74,2022-12-10T12:38:08Z
2022-12-10T10:35:14Z,42.805,6.029,13.3016,4.60091,2470.717,2022-12-10T12:41:11Z
2022-12-10T10:38:17Z,42.805,6.029,13.3017,4.60079,2470.74,2022-12-10T12:44:14Z
2022-12-10T10:41:20Z,42.805,6.029,13.3028,4.60106,2470.707,2022-12-10T12:47:17Z
2022-12-10T10:44:23Z,42.805,6.029,13.3027,4.60098,2470.73,2022-12-10T12:50:20Z
2022-12-10T10:47:26Z,42.805,6.029,13.3024,4.60104,2470.717,2022-12-10T12:53:23Z
2022-12-10T10:50:29Z,42.805,6.029,13.3019,4.60092,2470.74,2022-12-10T12:56:26Z
2022-12-10T10:53:33Z,42.805,6.029,13.3024,4.60098,2470.754,2022-12-10T12:59:29Z
2022-12-10T10:56:36Z,42.805,6.029,13.3031,4.60112,2470.693,2022-12-10T13:02:32Z
2022-12-10T10:59:39Z,42.805,6.029,13.3018,4.60113,2470.717,2022-12-10T13:05:35Z
2022-12-10T11:02:42Z,42.805,6.029,13.3027,4.60103,2470.73,2022-12-10T13:08:38Z
2022-12-10T11:05:45Z,42.805,6.029,13.3024,4.60101,2470.73,2022-12-10T13:11:42Z
2022-12-10T11:08:48Z,42.805,6.029,13.3023,4.60117,2470.693,2022-12-10T13:14:45Z
2022-12-10T11:11:51Z,42.805,6.029,13.3025,4.60084,2470.67,2022-12-10T13:17:48Z
2022-12-10T11:14:54Z,42.805,6.029,13.3017,4.60088,2470.679,2022-12-10T13:20:51Z
2022-12-10T11:17:57Z,42.805,6.029,13.3029,4.60092,2470.67,2022-12-10T13:23:54Z
2022-12-10T11:21:00Z,42.805,6.029,13.3026,4.60094,2470.67,2022-12-10T13:26:57Z
2022-12-10T11:24:03Z,42.805,6.029,13.3022,4.60097,2470.67,2022-12-10T13:30:00Z
2022-12-10T11:27:07Z,42.805,6.029,13.3018,4.60092,2470.67,2022-12-10T13:33:03Z
2022-12-10T11:30:10Z,42.805,6.029,13.3021,4.60097,2470.67,2022-12-10T13:36:06Z
2022-12-10T11:33:13Z,42.805,6.029,13.3016,4.60087,2470.684,2022-12-10T13:39:09Z
2022-12-10T11:36:16Z,42.805,6.029,13.3016,4.60079,2470.67,2022-12-10T13:42:12Z
2022-12-10T11:39:19Z,42.805,6.029,13.3015,4.60079,2470.707,2022-12-10T13:45:16Z
2022-12-10T11:42:22Z,42.805,6.029,13.3016,4.60084,2470.693,2022-12-10T13:48:19Z
2022-12-10T11:45:25Z,42.805,6.029,13.3015,4.60083,2470.684,2022-12-10T13:51:22Z
2022-12-10T11:48:28Z,42.805,6.029,13.3020,4.60092,2470.67,2022-12-10T13:54:25Z
2022-12-10T11:51:31Z,42.805,6.029,13.3024,4.60081,2470.646,2022-12-10T13:57:28Z
2022-12-10T11:54:34Z,42.805,6.029,13.3021,4.60079,2470.661,2022-12-10T14:00:31Z
2022-12-10T11:57:38Z,42.805,6.029,13.3029,4.60089,2470.684,2022-12-10T14:03:34Z
2022-12-10T12:00:41Z,42.805,6.029,13.3017,4.60084,2470.684,2022-12-10T14:06:37Z
2022-12-10T12:03:44Z,42.805,6.029,13.3014,4.60081,2470.684,2022-12-10T14:09:40Z
2022-12-10T12:06:47Z,42.805,6.029,13.3013,4.60076,2470.646,2022-12-10T14:12:43Z
2022-12-10T12:09:50Z,42.805,6.029,13.3018,4.60089,2470.684,2022-12-10T14:15:47Z
2022-12-10T12:12:53Z,42.805,6.029,13.3020,4.60086,2470.646,2022-12-10T14:18:50Z
2022-12-10T12:15:56Z,42.805,6.029,13.3026,4.60084,2470.67,2022-12-10T14:21:53Z
2022-12-10T12:18:59Z,42.805,6.029,13.3021,4.60100,2470.646,2022-12-10T14:24:56Z
2022-12-10T12:22:02Z,42.805,6.029,13.3029,4.60115,2470.646,2022-12-10T14:27:59Z
2022-12-10T12:25:05Z,42.805,6.029,13.3017,4.60084,2470.637,2022-12-10T14:31:02Z
2022-12-10T12:28:08Z,42.805,6.029,13.3027,4.60097,2470.67,2022-12-10T14:34:05Z
2022-12-10T12:31:12Z,42.805,6.029,13.3024,4.60091,2470.67,2022-12-10T14:37:08Z
2022-12-10T12:34:15Z,42.805,6.029,13.3027,4.60101,2470.637,2022-12-10T14:40:11Z
2022-12-10T12:37:18Z,42.805,6.029,13.3029,4.60090,2470.637,2022-12-10T14:43:14Z
2022-12-10T12:40:21Z,42.805,6.029,13.3020,4.60074,2470.624,2022-12-10T14:46:18Z
2022-12-10T12:43:24Z,42.805,6.029,13.3026,4.60110,2470.614,2022-12-10T14:49:21Z
2022-12-10T12:46:27Z,42.805,6.029,13.3018,4.60087,2470.637,2022-12-10T14:52:24Z
2022-12-10T12:49:30Z,42.805,6.029,13.3015,4.60092,2470.637,2022-12-10T14:55:27Z
2022-12-10T12:52:33Z,42.805,6.029,13.3014,4.60077,2470.6,2022-12-10T14:58:30Z
2022-12-10T12:55:36Z,42.805,6.029,13.3026,4.60104,2470.614,2022-12-10T15:01:33Z
2022-12-10T12:58:39Z,42.805,6.029,13.3019,4.60091,2470.624,2022-12-10T15:04:36Z
2022-12-10T13:01:42Z,42.805,6.029,13.3016,4.60097,2470.624,2022-12-10T15:07:39Z
2022-12-10T13:04:46Z,42.805,6.029,13.3015,4.60087,2470.624,2022-12-10T15:10:42Z
2022-12-10T13:07:49Z,42.805,6.029,13.3014,4.60081,2470.637,2022-12-10T15:13:45Z
2022-12-10T13:10:52Z,42.805,6.029,13.3015,4.60076,2470.624,2022-12-10T15:16:48Z
2022-12-10T13:13:55Z,42.805,6.029,13.3014,4.60078,2470.6,2022-12-10T15:19:51Z
2022-12-10T13:16:58Z,42.805,6.029,13.3018,4.60074,2470.637,2022-12-10T15:22:55Z
2022-12-10T13:20:01Z,42.805,6.029,13.3019,4.60072,2470.614,2022-12-10T15:25:58Z
2022-12-10T13:23:04Z,42.805,6.029,13.3018,4.60074,2470.577,2022-12-10T15:29:01Z
2022-12-10T13:26:07Z,42.805,6.029,13.3015,4.60073,2470.614,2022-12-10T15:32:04Z
2022-12-10T13:29:10Z,42.805,6.029,13.3020,4.60075,2470.624,2022-12-10T15:35:07Z
2022-12-10T13:32:13Z,42.805,6.029,13.3017,4.60078,2470.6,2022-12-10T15:38:10Z
2022-12-10T13:35:16Z,42.805,6.029,13.3018,4.60087,2470.6,2022-12-10T15:41:13Z
2022-12-10T13:38:19Z,42.805,6.029,13.3018,4.60077,2470.6,2022-12-10T15:44:16Z
2022-12-10T13:41:23Z,42.805,6.029,13.3015,4.60074,2470.624,2022-12-10T15:47:19Z
2022-12-10T13:44:26Z,42.805,6.029,13.3021,4.60093,2470.6,2022-12-10T15:50:22Z
2022-12-10T13:47:29Z,42.805,6.029,13.3015,4.60084,2470.6,2022-12-10T15:53:26Z
2022-12-10T13:50:32Z,42.805,6.029,13.3028,4.60079,2470.624,2022-12-10T15:56:29Z
2022-12-10T13:53:35Z,42.805,6.029,13.3021,4.60088,2470.591,2022-12-10T15:59:32Z
2022-12-10T13:56:38Z,42.805,6.029,13.3021,4.60097,2470.6,2022-12-10T16:02:35Z
2022-12-10T13:59:41Z,42.805,6.029,13.3021,4.60079,2470.6,2022-12-10T16:05:38Z
2022-12-10T14:02:44Z,42.805,6.029,13.3018,4.60079,2470.577,2022-12-10T16:08:41Z
2022-12-10T14:05:47Z,42.805,6.029,13.3026,4.60090,2470.624,2022-12-10T16:11:44Z
2022-12-10T14:08:50Z,42.805,6.029,13.3024,4.60087,2470.591,2022-12-10T16:14:47Z
2022-12-10T14:11:54Z,42.805,6.029,13.3023,4.60088,2470.577,2022-12-10T16:17:50Z
2022-12-10T14:14:57Z,42.805,6.029,13.3029,4.60091,2470.6,2022-12-10T16:20:53Z
2022-12-10T14:18:00Z,42.805,6.029,13.3018,4.60077,2470.6,2022-12-10T16:23:56Z
2022-12-10T14:21:03Z,42.805,6.029,13.3021,4.60089,2470.614,2022-12-10T16:27:00Z
2022-12-10T14:24:06Z,42.805,6.029,13.3017,4.60108,2470.614,2022-12-10T16:30:03Z
2022-12-10T14:27:09Z,42.805,6.029,13.3021,4.60087,2470.567,2022-12-10T16:33:06Z
2022-12-10T14:30:12Z,42.805,6.029,13.3023,4.60102,2470.563,2022-12-10T16:36:09Z
2022-12-10T14:33:15Z,42.805,6.029,13.3024,4.60112,2470.6,2022-12-10T16:39:12Z
2022-12-10T14:36:18Z,42.805,6.029,13.3033,4.60114,2470.614,2022-12-10T16:42:15Z
2022-12-10T14:39:21Z,42.805,6.029,13.3019,4.60117,2470.614,2022-12-10T16:45:18Z
2022-12-10T14:42:24Z,42.805,6.029,13.3035,4.60101,2470.6,2022-12-10T16:48:21Z
2022-12-10T14:45:28Z,42.805,6.029,13.3023,4.60085,2470.577,2022-12-10T16:51:24Z
2022-12-10T14:48:31Z,42.805,6.029,13.3019,4.60087,2470.577,2022-12-10T16:54:27Z
2022-12-10T14:51:34Z,42.805,6.029,13.3034,4.60100,2470.577,2022-12-10T16:57:30Z
2022-12-10T14:54:37Z,42.805,6.029,13.3021,4.60097,2470.614,2022-12-10T17:00:34Z
2022-12-10T14:57:40Z,42.805,6.029,13.3016,4.60089,2470.614,2022-12-10T17:03:37Z
2022-12-10T15:00:43Z,42.805,6.029,13.3024,4.60087,2470.6,2022-12-10T17:06:40Z